Simultaneous Nadir Overpasses (SNOs) Predictions

Prediction of SNOs between GOES-14 and NOAA-20 Satellite Orbit:

Table of predicted SNOs for the next 14.0 days since TLE Epoch: 10/28/2022
Index Date Time (GOES-14) GOES-14 Lat,Lon NOAA-20 Lat,Lon Distance(km) Time Diff (sec)
1 10/29/2022 20:20:46 -0.14,-104.19 -0.18,-104.30 12.79 80
2 11/01/2022 08:26:30 0.11,-104.34 0.25,-105.05 80.68 80
3 11/02/2022 08:05:04 0.13,-104.32 -0.73,-100.51 434.31 80
4 11/03/2022 20:27:00 -0.10,-104.15 -0.48,-105.81 189.83 80
5 11/04/2022 20:10:55 -0.11,-104.16 0.56,-101.28 328.07 80
6 11/06/2022 08:32:43 0.08,-104.35 0.55,-106.57 251.79 80
7 11/07/2022 08:11:18 0.10,-104.34 -0.44,-102.03 263.82 80
8 11/08/2022 20:33:13 -0.07,-104.13 -0.77,-107.32 364.25 80
9 11/09/2022 20:17:08 -0.08,-104.13 0.23,-102.79 153.67 80
10 11/11/2022 08:38:56 0.05,-104.37 0.88,-108.07 422.09 80
